[Date Prev][Date Next][Thread Prev][Thread Next] - [Date Index][Thread Index][Author Index]
2 Line ISS keps 5-31
- Subject: [sarex] 2 Line ISS keps 5-31
- From: "Dr Dave Larsen [ PhD ]" <doc@xxxxxxxxxxx>
- Date: Thu, 31 May 2001 01:59:27 -0700
ISS
1 25544U 98067A 01151.14320503 .00029473 00000-0 34815-3 0 233
2 25544 51.5693 174.7106 0017734 104.8179 323.9085 15.60875322144412
----
Via the sarex mailing list at AMSAT.ORG courtesy of AMSAT-NA.
To unsubscribe, send "unsubscribe sarex" to Majordomo@amsat.org
AMSAT Home